Location: Baia Mare
(47.6567°N, 23.5850°E)
Time: 22:25:48
(UTC+03:00)

ISS - Pass Details

Date: 14 March 2018
Orbit: 403 x 407 km, 51.6° (Epoch: 21 June)

Event Time Altitude Azimuth Distance (km) Brightness Sun altitude
Exits shadow 03:28:54 11° 67° (ENE) 1,428 -0.3 -31.5°
Drops below altitude 10° 03:29:03 10° 67° (ENE) 1,487 -0.2 -31.4°
Enters shadow 04:27:11 -65° 275° (W) 12,032 3.6 -22.9°
Maximum altitude 05:02:50 54° 15° (NNE) 508 -3.2 -17.3°
